Time,TemperatureF,DewpointF,PressureIn,WindDirection,WindDirectionDegrees,WindSpeedMPH,WindSpeedGustMPH,Humidity,HourlyPrecipIn,Conditions,Clouds,dailyrainin,SoftwareType,DateUTC
2013-03-02 00:00:00,23.9,16.5,30.05,NNW,332,16.1,16.1,73,0.00,,---,0.00,VWS V14.01,2013-03-02 05:00:00,
2013-03-02 00:01:00,23.9,16.5,30.05,NW,322,8.1,16.1,73,0.00,,---,0.00,VWS V14.01,2013-03-02 05:01:00,
2013-03-02 00:06:00,24.1,17.0,30.05,NNE,18,12.5,16.6,74,0.00,,---,0.00,VWS V14.01,2013-03-02 05:06:00,
2013-03-02 00:11:00,24.1,17.0,30.05,NNW,345,11.6,15.2,74,0.00,,---,0.00,VWS V14.01,2013-03-02 05:11:00,
2013-03-02 00:16:00,24.1,17.0,30.05,North,353,10.7,11.6,74,0.00,,---,0.00,VWS V14.01,2013-03-02 05:16:00,
2013-03-02 00:21:00,24.1,17.0,30.05,NW,325,8.1,8.1,74,0.00,,---,0.00,VWS V14.01,2013-03-02 05:21:00,
2013-03-02 00:26:00,24.1,17.0,30.05,North,351,6.3,10.7,74,0.00,,---,0.00,VWS V14.01,2013-03-02 05:26:00,
2013-03-02 00:31:00,24.1,17.0,30.05,NNW,332,7.2,10.7,74,0.00,,---,0.00,VWS V14.01,2013-03-02 05:31:00,
2013-03-02 00:36:00,24.1,17.0,30.05,NE,45,11.6,11.6,74,0.00,,---,0.00,VWS V14.01,2013-03-02 05:36:00,
2013-03-02 00:41:00,24.3,17.2,30.05,NNE,28,6.3,12.5,74,0.00,,---,0.00,VWS V14.01,2013-03-02 05:41:00,
2013-03-02 00:46:00,24.3,17.2,30.05,NNW,328,12.5,12.5,74,0.00,,---,0.00,VWS V14.01,2013-03-02 05:46:00,
2013-03-02 00:51:00,24.3,17.2,30.05,NNW,335,6.3,11.6,74,0.00,,---,0.00,VWS V14.01,2013-03-02 05:51:00,
2013-03-02 00:56:00,24.3,17.2,30.05,NNW,333,9.8,15.2,74,0.00,,---,0.00,VWS V14.01,2013-03-02 05:56:00,
2013-03-02 01:01:00,24.3,17.2,30.05,NNW,335,8.1,8.1,74,0.00,,---,0.00,VWS V14.01,2013-03-02 06:01:00,
2013-03-02 01:07:00,24.3,17.2,30.05,NNE,18,17.4,17.4,74,0.00,,---,0.00,VWS V14.01,2013-03-02 06:07:00,
2013-03-02 01:12:00,24.3,17.2,30.05,North,349,21.0,21.9,74,0.00,,---,0.00,VWS V14.01,2013-03-02 06:12:00,
2013-03-02 01:17:00,24.3,17.2,30.05,NW,314,10.7,12.5,74,0.00,,---,0.00,VWS V14.01,2013-03-02 06:17:00,
2013-03-02 01:22:00,24.3,17.2,30.05,NNW,334,11.6,12.5,74,0.00,,---,0.00,VWS V14.01,2013-03-02 06:22:00,
2013-03-02 01:27:00,24.3,17.2,30.05,NNW,347,12.5,15.2,74,0.00,,---,0.00,VWS V14.01,2013-03-02 06:27:00,
2013-03-02 01:32:00,24.1,17.0,30.05,NW,315,7.2,12.5,74,0.00,,---,0.00,VWS V14.01,2013-03-02 06:32:00,
2013-03-02 01:37:00,24.1,17.0,30.05,NNW,333,10.7,17.4,74,0.00,,---,0.00,VWS V14.01,2013-03-02 06:37:00,
2013-03-02 01:42:00,24.1,17.0,30.05,NNW,327,12.5,12.5,74,0.00,,---,0.00,VWS V14.01,2013-03-02 06:42:00,
2013-03-02 01:47:00,24.1,17.0,30.05,North,352,10.7,11.6,74,0.00,,---,0.00,VWS V14.01,2013-03-02 06:47:00,
2013-03-02 01:52:00,24.1,17.0,30.05,WNW,302,10.7,11.6,74,0.00,,---,0.00,VWS V14.01,2013-03-02 06:52:00,
2013-03-02 01:57:00,24.1,16.7,30.05,NNW,340,12.5,16.1,73,0.00,,---,0.00,VWS V14.01,2013-03-02 06:57:00,
2013-03-02 02:03:00,23.9,16.5,30.05,NW,312,6.3,10.7,73,0.00,,---,0.00,VWS V14.01,2013-03-02 07:03:00,
2013-03-02 02:08:00,23.9,16.5,30.02,NNW,333,10.7,10.7,73,0.00,,---,0.00,VWS V14.01,2013-03-02 07:08:00,
2013-03-02 02:13:00,23.9,16.5,30.02,NNW,340,6.3,9.8,73,0.00,,---,0.00,VWS V14.01,2013-03-02 07:13:00,
2013-03-02 02:18:00,23.9,16.5,30.02,NNW,343,8.1,9.8,73,0.00,,---,0.00,VWS V14.01,2013-03-02 07:18:00,
2013-03-02 02:23:00,23.9,16.5,30.05,NNW,334,11.6,15.2,73,0.00,,---,0.00,VWS V14.01,2013-03-02 07:23:00,
2013-03-02 02:28:00,23.9,16.5,30.05,North,354,12.5,12.5,73,0.00,,---,0.00,VWS V14.01,2013-03-02 07:28:00,
2013-03-02 02:33:00,23.7,16.4,30.05,NNW,333,16.1,17.4,73,0.00,,---,0.00,VWS V14.01,2013-03-02 07:33:00,
2013-03-02 02:38:00,23.7,16.4,30.05,NNW,347,8.1,11.6,73,0.00,,---,0.00,VWS V14.01,2013-03-02 07:38:00,
2013-03-02 02:43:00,23.7,16.0,30.05,NW,324,10.7,16.1,72,0.00,,---,0.00,VWS V14.01,2013-03-02 07:43:00,
2013-03-02 02:48:00,23.7,16.4,30.05,NNW,342,8.1,16.6,73,0.00,,---,0.00,VWS V14.01,2013-03-02 07:48:00,
2013-03-02 02:53:00,23.7,16.4,30.05,NW,325,10.7,16.1,73,0.00,,---,0.00,VWS V14.01,2013-03-02 07:53:00,
2013-03-02 02:58:00,23.7,16.4,30.05,NNW,332,7.2,7.2,73,0.00,,---,0.00,VWS V14.01,2013-03-02 07:58:00,
2013-03-02 03:03:00,23.7,16.4,30.05,NNW,331,16.1,16.1,73,0.00,,---,0.00,VWS V14.01,2013-03-02 08:03:00,
2013-03-02 03:08:00,23.7,16.4,30.02,NW,318,11.6,11.6,73,0.00,,---,0.00,VWS V14.01,2013-03-02 08:08:00,
2013-03-02 03:13:00,23.7,16.4,30.02,NW,318,11.6,11.6,73,0.00,,---,0.00,VWS V14.01,2013-03-02 08:13:00,
2013-03-02 03:18:00,23.7,16.4,30.02,NW,325,10.7,10.7,73,0.00,,---,0.00,VWS V14.01,2013-03-02 08:18:00,
2013-03-02 03:23:00,23.7,16.4,30.02,NNW,346,7.2,7.2,73,0.00,,---,0.00,VWS V14.01,2013-03-02 08:23:00,
2013-03-02 03:28:00,23.7,16.4,30.02,NNW,334,7.2,9.8,73,0.00,,---,0.00,VWS V14.01,2013-03-02 08:28:00,
2013-03-02 03:33:00,23.5,16.2,30.02,NNW,328,11.6,11.6,73,0.00,,---,0.00,VWS V14.01,2013-03-02 08:33:00,
2013-03-02 03:39:00,23.5,16.2,30.02,NNW,327,10.7,12.5,73,0.00,,---,0.00,VWS V14.01,2013-03-02 08:39:00,
2013-03-02 03:43:00,23.5,16.2,30.02,NW,325,10.7,10.7,73,0.00,,---,0.00,VWS V14.01,2013-03-02 08:43:00,
2013-03-02 03:49:00,23.7,16.4,30.02,NNW,328,12.5,13.4,73,0.00,,---,0.00,VWS V14.01,2013-03-02 08:49:00,
2013-03-02 03:54:00,23.7,16.4,30.02,NNW,331,5.4,8.1,73,0.00,,---,0.00,VWS V14.01,2013-03-02 08:54:00,
2013-03-02 03:59:00,23.7,16.4,30.02,WNW,301,7.2,8.1,73,0.00,,---,0.00,VWS V14.01,2013-03-02 08:59:00,
2013-03-02 04:04:00,23.7,16.4,30.02,NW,321,6.3,10.7,73,0.00,,---,0.00,VWS V14.01,2013-03-02 09:04:00,
2013-03-02 04:09:00,23.7,16.4,30.02,North,350,8.9,8.9,73,0.00,,---,0.00,VWS V14.01,2013-03-02 09:09:00,
2013-03-02 04:14:00,23.7,16.4,30.02,NW,319,9.8,12.5,73,0.00,,---,0.00,VWS V14.01,2013-03-02 09:14:00,
2013-03-02 04:19:00,23.7,16.4,30.02,WNW,303,6.3,7.2,73,0.00,,---,0.00,VWS V14.01,2013-03-02 09:19:00,
2013-03-02 04:24:00,23.7,16.4,30.02,North,349,7.2,16.1,73,0.00,,---,0.00,VWS V14.01,2013-03-02 09:24:00,
2013-03-02 04:29:00,23.7,16.4,30.02,NNW,331,5.4,8.1,73,0.00,,---,0.00,VWS V14.01,2013-03-02 09:29:00,
2013-03-02 04:34:00,23.7,16.7,30.02,NW,320,7.2,11.6,74,0.00,,---,0.00,VWS V14.01,2013-03-02 09:34:00,
2013-03-02 04:39:00,23.7,16.7,30.02,NW,316,10.7,10.7,74,0.00,,---,0.00,VWS V14.01,2013-03-02 09:39:00,
2013-03-02 04:44:00,23.7,16.7,30.02,NNW,347,9.8,16.1,74,0.00,,---,0.00,VWS V14.01,2013-03-02 09:44:00,
2013-03-02 04:49:00,23.7,16.7,30.02,North,356,11.6,14.3,74,0.00,,---,0.00,VWS V14.01,2013-03-02 09:49:00,
2013-03-02 04:54:00,23.7,16.7,30.02,NW,322,8.1,12.5,74,0.00,,---,0.00,VWS V14.01,2013-03-02 09:54:00,
2013-03-02 04:59:00,23.7,16.7,30.02,NW,315,16.6,16.6,74,0.00,,---,0.00,VWS V14.01,2013-03-02 09:59:00,
2013-03-02 05:04:00,23.7,16.7,30.02,WNW,303,8.1,10.7,74,0.00,,---,0.00,VWS V14.01,2013-03-02 10:04:00,
2013-03-02 05:10:00,23.7,16.7,30.02,NNW,334,15.2,15.2,74,0.00,,---,0.00,VWS V14.01,2013-03-02 10:10:00,
2013-03-02 05:15:00,23.7,16.7,30.02,NNW,340,7.2,12.5,74,0.00,,---,0.00,VWS V14.01,2013-03-02 10:15:00,
2013-03-02 05:20:00,23.7,17.0,30.02,North,350,11.6,16.6,75,0.00,,---,0.00,VWS V14.01,2013-03-02 10:20:00,
2013-03-02 05:25:00,23.7,17.0,30.02,North,356,15.2,15.2,75,0.00,,---,0.00,VWS V14.01,2013-03-02 10:25:00,
2013-03-02 05:30:00,23.7,17.0,30.02,NW,326,9.8,9.8,75,0.00,,---,0.00,VWS V14.01,2013-03-02 10:30:00,
2013-03-02 05:35:00,23.7,17.0,30.02,NNW,329,11.6,11.6,75,0.00,,---,0.00,VWS V14.01,2013-03-02 10:35:00,
2013-03-02 05:40:00,23.7,17.0,30.02,North,353,9.8,15.2,75,0.00,,---,0.00,VWS V14.01,2013-03-02 10:40:00,
2013-03-02 05:45:00,23.7,17.0,30.02,NNW,331,7.2,10.7,75,0.00,,---,0.00,VWS V14.01,2013-03-02 10:45:00,
2013-03-02 05:50:00,23.7,17.0,30.02,NNW,331,7.2,11.6,75,0.00,,---,0.00,VWS V14.01,2013-03-02 10:50:00,
2013-03-02 05:55:00,23.7,17.0,30.02,NW,313,10.7,10.7,75,0.00,,---,0.00,VWS V14.01,2013-03-02 10:55:00,
2013-03-02 06:00:00,23.7,17.3,30.02,NNW,343,9.8,9.8,76,0.00,,---,0.00,VWS V14.01,2013-03-02 11:00:00,
2013-03-02 06:05:00,23.7,17.3,30.02,NNW,332,11.6,13.4,76,0.00,,---,0.00,VWS V14.01,2013-03-02 11:05:00,
2013-03-02 06:10:00,23.7,17.3,30.02,NNW,340,8.1,8.1,76,0.00,,---,0.00,VWS V14.01,2013-03-02 11:10:00,
2013-03-02 06:15:00,23.7,17.3,30.02,NNW,337,8.1,12.5,76,0.00,,---,0.00,VWS V14.01,2013-03-02 11:15:00,
2013-03-02 06:20:00,23.5,17.1,30.02,NNW,341,16.6,17.4,76,0.00,,---,0.00,VWS V14.01,2013-03-02 11:20:00,
2013-03-02 06:26:00,23.5,17.1,30.02,NW,323,13.4,20.1,76,0.00,,---,0.00,VWS V14.01,2013-03-02 11:26:00,
2013-03-02 06:31:00,23.5,17.1,30.02,NW,314,8.1,10.7,76,0.00,,---,0.00,VWS V14.01,2013-03-02 11:31:00,
2013-03-02 06:36:00,23.5,17.1,30.02,NW,311,8.1,12.5,76,0.00,,---,0.00,VWS V14.01,2013-03-02 11:36:00,
2013-03-02 06:41:00,23.5,17.1,30.02,NNW,348,7.2,10.7,76,0.00,,---,0.00,VWS V14.01,2013-03-02 11:41:00,
2013-03-02 06:46:00,23.5,17.1,30.02,NW,322,8.1,11.6,76,0.00,,---,0.00,VWS V14.01,2013-03-02 11:46:00,
2013-03-02 06:51:00,23.5,17.1,30.02,NNE,21,16.6,16.6,76,0.00,,---,0.00,VWS V14.01,2013-03-02 11:51:00,
2013-03-02 06:56:00,23.5,17.1,30.02,NW,318,10.7,15.2,76,0.00,,---,0.00,VWS V14.01,2013-03-02 11:56:00,
2013-03-02 07:01:00,23.5,17.1,30.02,NNW,332,16.6,16.6,76,0.00,,---,0.00,VWS V14.01,2013-03-02 12:01:00,
2013-03-02 07:06:00,23.5,17.1,30.02,NW,326,8.1,14.3,76,0.00,,---,0.00,VWS V14.01,2013-03-02 12:06:00,
2013-03-02 07:11:00,23.5,17.1,30.02,NNW,335,6.3,9.8,76,0.00,,---,0.00,VWS V14.01,2013-03-02 12:11:00,
2013-03-02 07:16:00,23.4,16.9,30.02,NW,326,8.1,13.4,76,0.00,,---,0.00,VWS V14.01,2013-03-02 12:16:00,
2013-03-02 07:21:00,23.4,16.9,30.02,North,360,11.6,15.2,76,0.00,,---,0.00,VWS V14.01,2013-03-02 12:21:00,
2013-03-02 07:26:00,23.4,16.9,30.02,North,360,14.3,14.3,76,0.00,,---,0.00,VWS V14.01,2013-03-02 12:26:00,
2013-03-02 07:31:00,23.4,16.9,30.02,NW,317,8.1,11.6,76,0.00,,---,0.00,VWS V14.01,2013-03-02 12:31:00,
2013-03-02 07:36:00,23.4,16.9,30.02,NNW,328,8.1,11.6,76,0.00,,---,0.00,VWS V14.01,2013-03-02 12:36:00,
2013-03-02 07:41:00,23.4,16.9,30.05,NNW,348,6.3,7.2,76,0.00,,---,0.00,VWS V14.01,2013-03-02 12:41:00,
2013-03-02 07:46:00,23.4,17.2,30.05,NW,326,11.6,11.6,77,0.00,,---,0.00,VWS V14.01,2013-03-02 12:46:00,
2013-03-02 07:51:00,23.4,17.2,30.05,NW,320,9.8,9.8,77,0.00,,---,0.00,VWS V14.01,2013-03-02 12:51:00,
2013-03-02 07:56:00,23.4,17.2,30.05,NW,315,10.7,14.3,77,0.00,,---,0.00,VWS V14.01,2013-03-02 12:56:00,
2013-03-02 08:01:00,23.4,17.2,30.05,NNW,348,10.7,11.6,77,0.00,,---,0.00,VWS V14.01,2013-03-02 13:01:00,
2013-03-02 08:06:00,23.4,17.2,30.05,NNW,343,10.7,14.3,77,0.00,,---,0.00,VWS V14.01,2013-03-02 13:06:00,
2013-03-02 08:11:00,23.4,17.2,30.05,NNW,340,6.3,15.2,77,0.00,,---,0.00,VWS V14.01,2013-03-02 13:11:00,
2013-03-02 08:16:00,23.4,17.2,30.05,NNE,14,15.2,15.2,77,0.00,,---,0.00,VWS V14.01,2013-03-02 13:16:00,
2013-03-02 08:21:00,23.4,17.2,30.05,NNW,344,17.4,17.4,77,0.00,,---,0.00,VWS V14.01,2013-03-02 13:21:00,
2013-03-02 08:26:00,23.4,17.2,30.05,North,351,16.6,16.6,77,0.00,,---,0.00,VWS V14.01,2013-03-02 13:26:00,
2013-03-02 08:31:00,23.4,17.5,30.05,NW,304,9.8,15.2,78,0.00,,---,0.00,VWS V14.01,2013-03-02 13:31:00,
2013-03-02 08:36:00,23.4,17.5,30.05,North,356,16.6,17.4,78,0.00,,---,0.00,VWS V14.01,2013-03-02 13:36:00,
2013-03-02 08:41:00,23.4,17.5,30.05,NW,322,9.8,12.5,78,0.00,,---,0.00,VWS V14.01,2013-03-02 13:41:00,
2013-03-02 08:46:00,23.4,17.5,30.05,NW,308,12.5,12.5,78,0.00,,---,0.00,VWS V14.01,2013-03-02 13:46:00,
2013-03-02 08:51:00,23.4,17.5,30.05,NW,320,6.3,16.6,78,0.00,,---,0.00,VWS V14.01,2013-03-02 13:51:00,
2013-03-02 08:56:00,23.4,17.5,30.05,WNW,285,7.2,8.1,78,0.00,,---,0.00,VWS V14.01,2013-03-02 13:56:00,
2013-03-02 09:01:00,23.2,17.4,30.05,NNW,337,10.7,10.7,78,0.00,,---,0.00,VWS V14.01,2013-03-02 14:01:00,
2013-03-02 09:06:00,23.2,17.4,30.05,NNW,338,12.5,13.4,78,0.00,,---,0.00,VWS V14.01,2013-03-02 14:06:00,
2013-03-02 09:11:00,23.2,17.4,30.05,NNW,334,9.8,10.7,78,0.00,,---,0.00,VWS V14.01,2013-03-02 14:11:00,
2013-03-02 09:16:00,23.0,17.2,30.05,NW,306,10.7,12.5,78,0.00,,---,0.00,VWS V14.01,2013-03-02 14:16:00,
2013-03-02 09:21:00,23.0,17.2,30.05,WNW,303,8.1,12.5,78,0.00,,---,0.00,VWS V14.01,2013-03-02 14:21:00,
2013-03-02 09:26:00,23.0,17.5,30.05,NNW,331,9.8,16.6,79,0.00,,---,0.00,VWS V14.01,2013-03-02 14:26:00,
2013-03-02 09:31:00,23.2,17.6,30.05,NW,325,10.7,11.6,79,0.00,,---,0.00,VWS V14.01,2013-03-02 14:31:00,
2013-03-02 09:36:00,23.2,17.6,30.05,NW,326,7.2,9.8,79,0.00,,---,0.00,VWS V14.01,2013-03-02 14:36:00,
2013-03-02 09:41:00,23.4,17.8,30.05,North,355,12.5,12.5,79,0.00,,---,0.00,VWS V14.01,2013-03-02 14:41:00,
2013-03-02 09:46:00,23.4,17.8,30.05,North,9,12.5,13.4,79,0.00,,---,0.00,VWS V14.01,2013-03-02 14:46:00,
2013-03-02 09:51:00,23.4,17.8,30.05,NNW,337,16.1,17.4,79,0.00,,---,0.00,VWS V14.01,2013-03-02 14:51:00,
2013-03-02 09:56:00,23.4,17.8,30.05,North,350,10.7,12.5,79,0.00,,---,0.00,VWS V14.01,2013-03-02 14:56:00,
2013-03-02 10:01:00,23.5,18.0,30.05,NW,307,9.8,12.5,79,0.00,,---,0.00,VWS V14.01,2013-03-02 15:01:00,
2013-03-02 10:06:00,23.5,18.0,30.05,WNW,289,9.8,15.2,79,0.00,,---,0.00,VWS V14.01,2013-03-02 15:06:00,
2013-03-02 10:11:00,23.5,18.3,30.05,NNW,337,8.1,8.1,80,0.00,,---,0.00,VWS V14.01,2013-03-02 15:11:00,
2013-03-02 10:16:00,23.5,18.3,30.05,NW,326,7.2,12.5,80,0.00,,---,0.00,VWS V14.01,2013-03-02 15:16:00,
2013-03-02 10:21:00,23.5,18.3,30.05,North,351,8.1,17.4,80,0.00,,---,0.00,VWS V14.01,2013-03-02 15:21:00,
2013-03-02 10:26:00,23.5,18.3,30.05,NW,307,17.4,21.0,80,0.00,,---,0.00,VWS V14.01,2013-03-02 15:26:00,
2013-03-02 10:31:00,23.5,18.0,30.05,NNW,328,9.8,16.6,79,0.00,,---,0.00,VWS V14.01,2013-03-02 15:31:00,
2013-03-02 10:36:00,23.7,18.2,30.05,North,359,6.3,11.6,79,0.00,,---,0.00,VWS V14.01,2013-03-02 15:36:00,
2013-03-02 10:41:00,23.7,18.2,30.05,NNW,330,10.7,16.1,79,0.00,,---,0.00,VWS V14.01,2013-03-02 15:41:00,
2013-03-02 10:46:00,23.7,18.2,30.05,NNW,342,15.2,15.2,79,0.00,,---,0.00,VWS V14.01,2013-03-02 15:46:00,
2013-03-02 10:51:00,23.9,18.4,30.05,NNW,337,15.2,15.2,79,0.00,,---,0.00,VWS V14.01,2013-03-02 15:51:00,
2013-03-02 10:56:00,23.9,18.4,30.05,North,4,16.6,17.4,79,0.00,,---,0.00,VWS V14.01,2013-03-02 15:56:00,
2013-03-02 11:01:00,23.9,18.4,30.05,NNW,341,5.4,11.6,79,0.00,,---,0.00,VWS V14.01,2013-03-02 16:01:00,
2013-03-02 11:06:00,24.1,18.5,30.05,NW,319,14.3,16.6,79,0.00,,---,0.00,VWS V14.01,2013-03-02 16:06:00,
2013-03-02 11:11:00,24.1,18.5,30.05,NNW,334,12.5,12.5,79,0.00,,---,0.00,VWS V14.01,2013-03-02 16:11:00,
2013-03-02 11:16:00,24.3,18.7,30.05,NNW,340,7.2,9.8,79,0.00,,---,0.00,VWS V14.01,2013-03-02 16:16:00,
2013-03-02 11:21:00,24.3,18.7,30.05,NNW,343,8.1,10.7,79,0.00,,---,0.00,VWS V14.01,2013-03-02 16:21:00,
2013-03-02 11:26:00,24.3,18.4,30.05,NNW,330,16.6,16.6,78,0.00,,---,0.00,VWS V14.01,2013-03-02 16:26:00,
2013-03-02 11:31:00,24.4,18.6,30.05,North,5,11.6,15.2,78,0.00,,---,0.00,VWS V14.01,2013-03-02 16:31:00,
2013-03-02 11:36:00,24.4,18.6,30.05,NW,309,10.7,10.7,78,0.00,,---,0.00,VWS V14.01,2013-03-02 16:36:00,
2013-03-02 11:41:00,24.4,18.6,30.05,NNW,337,12.5,12.5,78,0.00,,---,0.00,VWS V14.01,2013-03-02 16:41:00,
2013-03-02 11:46:00,24.6,18.5,30.05,NNW,333,8.9,12.5,77,0.00,,---,0.00,VWS V14.01,2013-03-02 16:46:00,
2013-03-02 11:51:00,24.8,18.6,30.05,NNW,341,15.2,16.1,77,0.00,,---,0.00,VWS V14.01,2013-03-02 16:51:00,
2013-03-02 11:56:00,24.8,18.6,30.05,North,349,12.5,16.6,77,0.00,,---,0.00,VWS V14.01,2013-03-02 16:56:00,
2013-03-02 12:01:00,24.8,18.3,30.05,NNW,334,11.6,17.4,76,0.00,,---,0.00,VWS V14.01,2013-03-02 17:01:00,
2013-03-02 12:06:00,25.0,18.5,30.05,NNW,332,9.8,17.4,76,0.00,,---,0.00,VWS V14.01,2013-03-02 17:06:00,
2013-03-02 12:11:00,25.0,18.5,30.05,NNW,338,16.1,16.1,76,0.00,,---,0.00,VWS V14.01,2013-03-02 17:11:00,
2013-03-02 12:16:00,25.0,18.2,30.05,NNW,337,11.6,16.6,75,0.00,,---,0.00,VWS V14.01,2013-03-02 17:16:00,
2013-03-02 12:21:00,25.0,18.2,30.05,NNW,336,12.5,12.5,75,0.00,,---,0.00,VWS V14.01,2013-03-02 17:21:00,
2013-03-02 12:26:00,24.8,18.0,30.05,NW,324,15.2,21.0,75,0.00,,---,0.00,VWS V14.01,2013-03-02 17:26:00,
2013-03-02 12:31:00,24.8,18.0,30.05,NNW,340,12.5,16.1,75,0.00,,---,0.00,VWS V14.01,2013-03-02 17:31:00,
2013-03-02 12:36:00,25.0,17.9,30.05,NNE,18,11.6,16.6,74,0.00,,---,0.00,VWS V14.01,2013-03-02 17:36:00,
2013-03-02 12:41:00,25.0,17.9,30.02,NNW,341,8.1,17.4,74,0.00,,---,0.00,VWS V14.01,2013-03-02 17:41:00,
2013-03-02 12:46:00,25.0,17.9,30.02,NNW,344,10.7,10.7,74,0.00,,---,0.00,VWS V14.01,2013-03-02 17:46:00,
2013-03-02 12:51:00,25.0,17.9,30.02,NW,324,12.5,15.2,74,0.00,,---,0.00,VWS V14.01,2013-03-02 17:51:00,
2013-03-02 12:56:00,25.2,18.0,30.02,NW,322,11.6,12.5,74,0.00,,---,0.00,VWS V14.01,2013-03-02 17:56:00,
2013-03-02 13:01:00,25.3,18.2,30.02,NW,325,16.1,16.1,74,0.00,,---,0.00,VWS V14.01,2013-03-02 18:01:00,
2013-03-02 13:06:00,25.5,18.4,30.02,North,356,21.0,21.0,74,0.00,,---,0.00,VWS V14.01,2013-03-02 18:06:00,
2013-03-02 13:11:00,25.5,17.8,30.02,NNW,339,11.6,16.1,72,0.00,,---,0.00,VWS V14.01,2013-03-02 18:11:00,
2013-03-02 13:16:00,25.5,17.4,30.02,NW,324,10.7,10.7,71,0.00,,---,0.00,VWS V14.01,2013-03-02 18:16:00,
2013-03-02 13:21:00,25.5,17.4,30.02,North,9,12.5,26.4,71,0.00,,---,0.00,VWS V14.01,2013-03-02 18:21:00,
2013-03-02 13:26:00,25.7,17.3,30.02,North,352,12.5,16.1,70,0.00,,---,0.00,VWS V14.01,2013-03-02 18:26:00,
2013-03-02 13:31:00,25.7,17.3,30.02,NNW,342,10.7,12.5,70,0.00,,---,0.00,VWS V14.01,2013-03-02 18:31:00,
2013-03-02 13:36:00,25.7,17.0,30.02,NNW,347,15.2,16.6,69,0.00,,---,0.00,VWS V14.01,2013-03-02 18:36:00,
2013-03-02 13:41:00,25.7,17.0,30.02,NNW,327,14.3,16.6,69,0.00,,---,0.00,VWS V14.01,2013-03-02 18:41:00,
2013-03-02 13:46:00,25.7,16.6,30.02,NNE,27,15.2,20.1,68,0.00,,---,0.00,VWS V14.01,2013-03-02 18:46:00,
2013-03-02 13:51:00,25.9,16.8,30.02,North,349,8.1,10.7,68,0.00,,---,0.00,VWS V14.01,2013-03-02 18:51:00,
2013-03-02 13:56:00,25.9,16.8,30.02,NNW,343,9.8,11.6,68,0.00,,---,0.00,VWS V14.01,2013-03-02 18:56:00,
2013-03-02 14:01:00,25.9,16.5,30.02,North,359,15.2,16.6,67,0.00,,---,0.00,VWS V14.01,2013-03-02 19:01:00,
2013-03-02 14:06:00,25.9,16.5,30.02,NNE,14,11.6,16.6,67,0.00,,---,0.00,VWS V14.01,2013-03-02 19:06:00,
2013-03-02 14:11:00,25.9,16.5,30.02,North,6,12.5,17.4,67,0.00,,---,0.00,VWS V14.01,2013-03-02 19:11:00,
2013-03-02 14:16:00,25.9,16.5,30.02,NNE,21,4.5,8.1,67,0.00,,---,0.00,VWS V14.01,2013-03-02 19:16:00,
2013-03-02 14:21:00,25.9,16.5,30.02,NNW,339,11.6,12.5,67,0.00,,---,0.00,VWS V14.01,2013-03-02 19:21:00,
2013-03-02 14:26:00,26.1,16.6,30.02,NNW,331,7.2,8.1,67,0.00,,---,0.00,VWS V14.01,2013-03-02 19:26:00,
2013-03-02 14:31:00,26.1,16.3,30.02,NNW,347,9.8,14.3,66,0.00,,---,0.00,VWS V14.01,2013-03-02 19:31:00,
2013-03-02 14:36:00,26.1,16.3,30.02,NNW,337,15.2,20.1,66,0.00,,---,0.00,VWS V14.01,2013-03-02 19:36:00,
2013-03-02 14:41:00,26.1,16.3,30.02,NW,323,12.5,12.5,66,0.00,,---,0.00,VWS V14.01,2013-03-02 19:41:00,
2013-03-02 14:46:00,25.9,16.1,30.02,NNW,335,12.5,12.5,66,0.00,,---,0.00,VWS V14.01,2013-03-02 19:46:00,
2013-03-02 14:51:00,25.9,15.8,30.02,NW,326,15.2,15.2,65,0.00,,---,0.00,VWS V14.01,2013-03-02 19:51:00,
2013-03-02 14:56:00,25.7,15.6,30.02,NNW,339,9.8,9.8,65,0.00,,---,0.00,VWS V14.01,2013-03-02 19:56:00,
2013-03-02 15:01:00,25.7,15.9,30.02,NNE,26,8.1,17.4,66,0.00,,---,0.00,VWS V14.01,2013-03-02 20:01:00,
2013-03-02 15:06:00,25.9,16.1,30.02,NNW,338,10.7,11.6,66,0.00,,---,0.00,VWS V14.01,2013-03-02 20:06:00,
2013-03-02 15:11:00,25.9,16.1,30.02,North,6,12.5,12.5,66,0.00,,---,0.00,VWS V14.01,2013-03-02 20:11:00,
2013-03-02 15:16:00,25.7,15.6,30.02,NW,324,12.5,20.1,65,0.00,,---,0.00,VWS V14.01,2013-03-02 20:16:00,
2013-03-02 15:21:00,25.7,15.6,30.02,NNW,341,12.5,12.5,65,0.00,,---,0.00,VWS V14.01,2013-03-02 20:21:00,
2013-03-02 15:26:00,25.5,15.4,30.02,NW,317,9.8,12.5,65,0.00,,---,0.00,VWS V14.01,2013-03-02 20:26:00,
2013-03-02 15:31:00,25.5,15.4,30.02,North,355,11.6,11.6,65,0.00,,---,0.00,VWS V14.01,2013-03-02 20:31:00,
2013-03-02 15:36:00,25.5,15.4,30.02,NNW,339,10.7,13.4,65,0.00,,---,0.00,VWS V14.01,2013-03-02 20:36:00,
2013-03-02 15:41:00,25.5,15.4,30.02,NW,319,12.5,12.5,65,0.00,,---,0.00,VWS V14.01,2013-03-02 20:41:00,
2013-03-02 15:46:00,25.5,15.4,30.02,NNW,347,12.5,16.1,65,0.00,,---,0.00,VWS V14.01,2013-03-02 20:46:00,
2013-03-02 15:51:00,25.3,15.2,30.02,NNW,336,15.2,16.6,65,0.00,,---,0.00,VWS V14.01,2013-03-02 20:51:00,
2013-03-02 15:56:00,25.3,15.2,30.02,NW,314,10.7,12.5,65,0.00,,---,0.00,VWS V14.01,2013-03-02 20:56:00,
2013-03-02 16:01:00,25.3,15.2,30.02,NNW,346,12.5,12.5,65,0.00,,---,0.00,VWS V14.01,2013-03-02 21:01:00,
2013-03-02 16:06:00,25.3,15.2,30.02,NNW,329,15.2,15.2,65,0.00,,---,0.00,VWS V14.01,2013-03-02 21:06:00,
2013-03-02 16:11:00,25.3,15.2,30.02,NNW,329,12.5,12.5,65,0.00,,---,0.00,VWS V14.01,2013-03-02 21:11:00,
2013-03-02 16:16:00,25.3,15.2,30.02,North,7,8.1,8.1,65,0.00,,---,0.00,VWS V14.01,2013-03-02 21:16:00,
2013-03-02 16:21:00,25.3,15.2,30.02,WNW,298,19.2,19.2,65,0.00,,---,0.00,VWS V14.01,2013-03-02 21:21:00,
2013-03-02 16:26:00,25.3,15.2,30.02,NNW,343,11.6,16.1,65,0.00,,---,0.00,VWS V14.01,2013-03-02 21:26:00,
2013-03-02 16:31:00,25.3,15.2,30.02,North,356,17.4,17.4,65,0.00,,---,0.00,VWS V14.01,2013-03-02 21:31:00,
2013-03-02 16:36:00,25.2,15.1,30.02,NW,312,12.5,16.6,65,0.00,,---,0.00,VWS V14.01,2013-03-02 21:36:00,
2013-03-02 16:41:00,25.2,15.1,30.02,NNW,342,10.7,17.4,65,0.00,,---,0.00,VWS V14.01,2013-03-02 21:41:00,
2013-03-02 16:46:00,25.0,14.9,30.02,North,3,12.5,16.1,65,0.00,,---,0.00,VWS V14.01,2013-03-02 21:46:00,
2013-03-02 16:51:00,24.8,14.7,30.02,NW,321,12.5,12.5,65,0.00,,---,0.00,VWS V14.01,2013-03-02 21:51:00,
2013-03-02 16:56:00,24.8,14.7,30.02,North,7,7.2,11.6,65,0.00,,---,0.00,VWS V14.01,2013-03-02 21:56:00,
2013-03-02 17:02:00,24.6,14.6,30.02,NNW,329,14.3,16.1,65,0.00,,---,0.00,VWS V14.01,2013-03-02 22:02:00,
2013-03-02 17:07:00,24.6,14.6,30.02,North,352,12.5,16.1,65,0.00,,---,0.00,VWS V14.01,2013-03-02 22:07:00,
2013-03-02 17:12:00,24.6,14.9,30.02,North,351,7.2,9.8,66,0.00,,---,0.00,VWS V14.01,2013-03-02 22:12:00,
2013-03-02 17:17:00,24.4,14.4,30.02,North,5,11.6,11.6,65,0.00,,---,0.00,VWS V14.01,2013-03-02 22:17:00,
2013-03-02 17:22:00,24.4,14.4,30.02,NNW,344,6.3,9.8,65,0.00,,---,0.00,VWS V14.01,2013-03-02 22:22:00,
2013-03-02 17:27:00,24.4,14.4,30.02,NW,321,13.4,15.2,65,0.00,,---,0.00,VWS V14.01,2013-03-02 22:27:00,
2013-03-02 17:32:00,24.4,14.4,30.02,NW,322,15.2,21.0,65,0.00,,---,0.00,VWS V14.01,2013-03-02 22:32:00,
2013-03-02 17:37:00,24.4,14.4,30.02,NNE,14,12.5,12.5,65,0.00,,---,0.00,VWS V14.01,2013-03-02 22:37:00,
2013-03-02 17:42:00,24.3,14.6,30.02,NNW,340,6.3,11.6,66,0.00,,---,0.00,VWS V14.01,2013-03-02 22:42:00,
2013-03-02 17:47:00,24.3,14.6,30.02,NNW,338,16.1,16.1,66,0.00,,---,0.00,VWS V14.01,2013-03-02 22:47:00,
2013-03-02 17:52:00,24.3,14.6,30.05,NNW,340,15.2,15.2,66,0.00,,---,0.00,VWS V14.01,2013-03-02 22:52:00,
2013-03-02 17:57:00,24.3,14.6,30.05,NNW,348,6.3,7.2,66,0.00,,---,0.00,VWS V14.01,2013-03-02 22:57:00,
2013-03-02 18:02:00,24.3,14.6,30.05,NW,319,9.8,9.8,66,0.00,,---,0.00,VWS V14.01,2013-03-02 23:02:00,
2013-03-02 18:07:00,24.1,14.4,30.05,NW,320,17.4,17.4,66,0.00,,---,0.00,VWS V14.01,2013-03-02 23:07:00,
2013-03-02 18:12:00,24.1,14.4,30.05,NNW,348,21.0,21.0,66,0.00,,---,0.00,VWS V14.01,2013-03-02 23:12:00,
2013-03-02 18:17:00,24.1,14.0,30.05,NNE,21,4.5,6.3,65,0.00,,---,0.00,VWS V14.01,2013-03-02 23:17:00,
2013-03-02 18:22:00,23.9,13.9,30.05,NNW,346,12.5,16.1,65,0.00,,---,0.00,VWS V14.01,2013-03-02 23:22:00,
2013-03-02 18:27:00,23.9,13.9,30.05,NE,43,7.2,7.2,65,0.00,,---,0.00,VWS V14.01,2013-03-02 23:27:00,
2013-03-02 18:32:00,23.9,14.2,30.05,NNW,340,7.2,7.2,66,0.00,,---,0.00,VWS V14.01,2013-03-02 23:32:00,
2013-03-02 18:37:00,23.7,14.0,30.05,NNW,340,10.7,10.7,66,0.00,,---,0.00,VWS V14.01,2013-03-02 23:37:00,
2013-03-02 18:42:00,23.7,14.0,30.05,NW,326,17.4,17.4,66,0.00,,---,0.00,VWS V14.01,2013-03-02 23:42:00,
2013-03-02 18:47:00,23.7,14.0,30.05,North,349,16.6,16.6,66,0.00,,---,0.00,VWS V14.01,2013-03-02 23:47:00,
2013-03-02 18:52:00,23.7,14.0,30.05,NNW,345,12.5,12.5,66,0.00,,---,0.00,VWS V14.01,2013-03-02 23:52:00,
2013-03-02 18:57:00,23.7,14.0,30.05,North,352,16.6,16.6,66,0.00,,---,0.00,VWS V14.01,2013-03-02 23:57:00,
2013-03-02 19:02:00,23.7,14.0,30.05,NNW,343,7.2,11.6,66,0.00,,---,0.00,VWS V14.01,2013-03-03 00:02:00,
2013-03-02 19:08:00,23.7,14.0,30.05,NNW,347,7.2,7.2,66,0.00,,---,0.00,VWS V14.01,2013-03-03 00:08:00,
2013-03-02 19:13:00,23.7,14.0,30.05,NNE,14,10.7,17.4,66,0.00,,---,0.00,VWS V14.01,2013-03-03 00:13:00,
2013-03-02 19:18:00,23.5,13.9,30.05,NNW,347,7.2,10.7,66,0.00,,---,0.00,VWS V14.01,2013-03-03 00:18:00,
2013-03-02 19:23:00,23.5,13.9,30.05,NNW,335,8.1,12.5,66,0.00,,---,0.00,VWS V14.01,2013-03-03 00:23:00,
2013-03-02 19:28:00,23.5,13.9,30.05,North,356,15.2,15.2,66,0.00,,---,0.00,VWS V14.01,2013-03-03 00:28:00,
2013-03-02 19:33:00,23.5,13.9,30.05,North,9,12.5,12.5,66,0.00,,---,0.00,VWS V14.01,2013-03-03 00:33:00,
2013-03-02 19:38:00,23.5,13.9,30.05,North,355,4.5,10.7,66,0.00,,---,0.00,VWS V14.01,2013-03-03 00:38:00,
2013-03-02 19:43:00,23.5,14.2,30.05,North,355,5.4,6.3,67,0.00,,---,0.00,VWS V14.01,2013-03-03 00:43:00,
2013-03-02 19:48:00,23.5,14.2,30.05,NNW,332,11.6,16.1,67,0.00,,---,0.00,VWS V14.01,2013-03-03 00:48:00,
2013-03-02 19:53:00,23.5,14.2,30.05,North,352,9.8,12.5,67,0.00,,---,0.00,VWS V14.01,2013-03-03 00:53:00,
2013-03-02 19:58:00,23.5,13.9,30.05,North,358,16.6,16.6,66,0.00,,---,0.00,VWS V14.01,2013-03-03 00:58:00,
2013-03-02 20:03:00,23.4,13.7,30.05,NNW,335,11.6,11.6,66,0.00,,---,0.00,VWS V14.01,2013-03-03 01:03:00,
2013-03-02 20:08:00,23.4,13.7,30.05,NNW,346,7.2,10.7,66,0.00,,---,0.00,VWS V14.01,2013-03-03 01:08:00,
2013-03-02 20:13:00,23.4,13.7,30.05,NNW,337,10.7,10.7,66,0.00,,---,0.00,VWS V14.01,2013-03-03 01:13:00,
2013-03-02 20:18:00,23.4,13.4,30.05,North,350,12.5,12.5,65,0.00,,---,0.00,VWS V14.01,2013-03-03 01:18:00,
2013-03-02 20:23:00,23.4,13.4,30.05,North,350,8.9,9.8,65,0.00,,---,0.00,VWS V14.01,2013-03-03 01:23:00,
2013-03-02 20:28:00,23.4,13.4,30.05,North,351,6.3,6.3,65,0.00,,---,0.00,VWS V14.01,2013-03-03 01:28:00,
2013-03-02 20:33:00,23.4,13.4,30.05,NNW,348,6.3,6.3,65,0.00,,---,0.00,VWS V14.01,2013-03-03 01:33:00,
2013-03-02 20:38:00,23.4,13.4,30.05,North,357,5.4,6.3,65,0.00,,---,0.00,VWS V14.01,2013-03-03 01:38:00,
2013-03-02 20:43:00,23.4,13.4,30.05,NNW,328,6.3,7.2,65,0.00,,---,0.00,VWS V14.01,2013-03-03 01:43:00,
2013-03-02 20:49:00,23.4,13.7,30.05,NNE,26,4.5,8.1,66,0.00,,---,0.00,VWS V14.01,2013-03-03 01:49:00,
2013-03-02 20:54:00,23.4,13.7,30.05,NNW,335,8.1,11.6,66,0.00,,---,0.00,VWS V14.01,2013-03-03 01:54:00,
2013-03-02 20:59:00,23.4,14.4,30.05,NNW,338,10.7,11.6,68,0.00,,---,0.00,VWS V14.01,2013-03-03 01:59:00,
2013-03-02 21:03:00,23.4,14.7,30.05,NW,325,14.3,14.3,69,0.00,,---,0.00,VWS V14.01,2013-03-03 02:03:00,
2013-03-02 21:08:00,23.2,14.5,30.05,NNW,331,8.9,12.5,69,0.00,,---,0.00,VWS V14.01,2013-03-03 02:08:00,
2013-03-02 21:14:00,23.2,14.9,30.05,NW,325,10.7,10.7,70,0.00,,---,0.00,VWS V14.01,2013-03-03 02:14:00,
2013-03-02 21:19:00,23.2,14.9,30.05,NNW,331,8.1,8.1,70,0.00,,---,0.00,VWS V14.01,2013-03-03 02:19:00,
2013-03-02 21:24:00,23.2,15.2,30.05,NW,322,5.4,10.7,71,0.00,,---,0.00,VWS V14.01,2013-03-03 02:24:00,
2013-03-02 21:29:00,23.0,15.3,30.05,NNW,330,8.1,9.8,72,0.00,,---,0.00,VWS V14.01,2013-03-03 02:29:00,
2013-03-02 21:34:00,23.0,15.3,30.05,NW,326,7.2,7.2,72,0.00,,---,0.00,VWS V14.01,2013-03-03 02:34:00,
2013-03-02 21:39:00,23.0,15.6,30.05,NNW,332,7.2,11.6,73,0.00,,---,0.00,VWS V14.01,2013-03-03 02:39:00,
2013-03-02 21:44:00,23.0,15.6,30.05,West,268,8.1,12.5,73,0.00,,---,0.00,VWS V14.01,2013-03-03 02:44:00,
2013-03-02 21:49:00,23.0,16.0,30.05,NW,323,8.1,12.5,74,0.00,,---,0.00,VWS V14.01,2013-03-03 02:49:00,
2013-03-02 21:54:00,22.8,15.8,30.05,NNE,24,12.5,12.5,74,0.00,,---,0.00,VWS V14.01,2013-03-03 02:54:00,
2013-03-02 21:59:00,22.8,15.8,30.05,North,4,6.3,6.3,74,0.00,,---,0.00,VWS V14.01,2013-03-03 02:59:00,
2013-03-02 22:04:00,22.8,15.8,30.05,NW,313,8.1,8.1,74,0.00,,---,0.00,VWS V14.01,2013-03-03 03:04:00,
2013-03-02 22:09:00,22.8,16.1,30.02,NW,319,7.2,10.7,75,0.00,,---,0.00,VWS V14.01,2013-03-03 03:09:00,
2013-03-02 22:14:00,22.8,16.1,30.02,NW,317,5.4,6.3,75,0.00,,---,0.00,VWS V14.01,2013-03-03 03:14:00,
2013-03-02 22:19:00,22.8,16.1,30.02,NW,309,10.7,12.5,75,0.00,,---,0.00,VWS V14.01,2013-03-03 03:19:00,
2013-03-02 22:24:00,22.8,16.1,30.02,NNE,14,6.3,6.3,75,0.00,,---,0.00,VWS V14.01,2013-03-03 03:24:00,
2013-03-02 22:29:00,22.8,16.1,30.02,WNW,287,6.3,8.1,75,0.00,,---,0.00,VWS V14.01,2013-03-03 03:29:00,
2013-03-02 22:34:00,22.8,16.1,30.02,NNW,336,5.4,5.4,75,0.00,,---,0.00,VWS V14.01,2013-03-03 03:34:00,
2013-03-02 22:39:00,22.6,15.9,30.02,NW,325,5.4,6.3,75,0.00,,---,0.00,VWS V14.01,2013-03-03 03:39:00,
2013-03-02 22:44:00,22.6,15.9,30.02,West,273,6.3,6.3,75,0.00,,---,0.00,VWS V14.01,2013-03-03 03:44:00,
2013-03-02 22:49:00,22.6,15.9,30.02,NW,316,8.1,8.1,75,0.00,,---,0.00,VWS V14.01,2013-03-03 03:49:00,
2013-03-02 22:55:00,22.6,15.9,30.02,NNW,331,7.2,8.1,75,0.00,,---,0.00,VWS V14.01,2013-03-03 03:55:00,
2013-03-02 23:00:00,22.6,16.2,30.02,NW,325,10.7,12.5,76,0.00,,---,0.00,VWS V14.01,2013-03-03 04:00:00,
2013-03-02 23:05:00,22.6,16.2,30.02,NW,321,10.7,17.4,76,0.00,,---,0.00,VWS V14.01,2013-03-03 04:05:00,
2013-03-02 23:10:00,22.6,16.2,30.02,WNW,300,10.7,12.5,76,0.00,,---,0.00,VWS V14.01,2013-03-03 04:10:00,
2013-03-02 23:15:00,22.5,15.8,30.02,NNW,331,10.7,15.2,75,0.00,,---,0.00,VWS V14.01,2013-03-03 04:15:00,
2013-03-02 23:20:00,22.5,15.8,30.02,NNW,339,15.2,17.4,75,0.00,,---,0.00,VWS V14.01,2013-03-03 04:20:00,
2013-03-02 23:25:00,22.5,15.8,30.02,NW,312,10.7,12.5,75,0.00,,---,0.00,VWS V14.01,2013-03-03 04:25:00,
2013-03-02 23:30:00,22.5,15.8,30.02,WNW,296,10.7,10.7,75,0.00,,---,0.00,VWS V14.01,2013-03-03 04:30:00,
2013-03-02 23:35:00,22.5,15.4,30.02,NW,317,12.5,12.5,74,0.00,,---,0.00,VWS V14.01,2013-03-03 04:35:00,
2013-03-02 23:40:00,22.5,15.4,30.02,NNW,331,7.2,8.1,74,0.00,,---,0.00,VWS V14.01,2013-03-03 04:40:00,
2013-03-02 23:45:00,22.5,15.4,30.02,NW,322,9.8,11.6,74,0.00,,---,0.00,VWS V14.01,2013-03-03 04:45:00,
2013-03-02 23:50:00,22.5,15.4,30.02,NW,321,10.7,10.7,74,0.00,,---,0.00,VWS V14.01,2013-03-03 04:50:00,
2013-03-02 23:55:00,22.5,15.4,30.02,NW,318,11.6,11.6,74,0.00,,---,0.00,VWS V14.01,2013-03-03 04:55:00,